sat.trackr.live / text

‹ back to catalog

STARLINK-34391

NORAD 64298 · 2025-123H

PAYLOAD ACTIVE UNKNOWN

§ Identity

Operator
Country
US
Launch date
2025-06-08
Launch site
AFWTR
Launch vehicle
Mass (kg)
RCS (m²)

Purposes: comms

External: N2YO · Heavens-Above · Gunter

§ Orbital elements

Epoch: 2026-09-20T20:22:22.586592Z

Period
94.14 min
Inclination
70.0002°
Eccentricity
0.0004359
Mean motion
15.29583037 rev/d
Perigee alt
474.1 km
Apogee alt
480.0 km
Semi-major
6,855.2 km
B*
3.4863e-4
RAAN
59.9137°
Arg perigee
274.1492°
Mean anomaly
85.9185°
Rev number
7,091

§ Raw data

STARLINK-343911 64298U 25123H   26263.84887253  .00009909  00000+0  34863-3 0  99992 64298  70.0002  59.9137 0004359 274.1492  85.9185 15.29583037 70910

JSON: /api/v1/satellites/64298 · /tle

For live sub-satellite position, see the globe view (requires WebGL).

§ Visibility from observer

Set your observer location to see the next 7 days of passes ≥ 10°. The values pass through the URL so the page stays shareable.

No JS? Fill the form by hand. The geolocation button needs JavaScript.